[[{"header":{"parameterUnit":"m.s-1","parameterCategory":1,"la1":30.2991,"la2":30.254,"lo1":-89.0895,"lo2":-89.0444,"dy":0.0017,"dx":0.0017,"nx":28,"ny":28,"refTime":"2025-03-14T21:00:00:Z","depth":0,"parameterNumber":2,"parameterNumberName":"U-component_of_WINDS"},"data":[0,0,0,0,0,0,0,0,0,0,0,0,0,0,0,0,0,0,0,0,0,0,0,0,0,0,0,0,0,0,0,0,0,0,0,0,0,0,0,0,0,0,0,0,0,0,0,0,0,0,0,0,0,0,0,0,0,0,-2.5855,-2.5857,0,-2.5999,-2.6,-2.6002,-2.6082,-2.6082,-2.6082,-2.6083,-2.6232,-2.6235,-2.6239,0,0,0,0,0,0,0,0,0,0,0,0,0,-2.5653,-2.5656,-2.5855,-2.5857,-2.5859,-2.5998,-2.6,-2.6002,-2.6082,-2.6082,-2.6082,-2.6083,-2.623,-2.6235,-2.6239,0,0,0,0,0,0,0,0,0,0,0,0,0,-2.5763,-2.5657,-2.5855,-2.5915,-2.5922,-2.5998,-2.6,-2.6003,-2.6082,-2.6082,-2.6082,-2.6083,-2.6229,-2.6234,-2.624,-2.6268,0,0,-2.6257,-2.626,0,0,0,0,0,0,0,0,-2.5756,-2.577,-2.5904,-2.5911,-2.5919,-2.6023,-2.5984,-2.6092,-2.6082,-2.6021,-2.6083,-2.6083,-2.6162,-2.6173,-2.6199,-2.6275,-2.6281,-2.6258,-2.6261,-2.6264,-2.6265,0,0,0,0,0,0,0,-2.5749,-2.5764,-2.5912,-2.5906,-2.5915,-2.5936,-2.5952,-2.6005,-2.6088,-2.6026,-2.6033,-2.6048,-2.6166,-2.6194,-2.6203,-2.6283,-2.6258,-2.6263,-2.6266,-2.6268,-2.639,-2.639,0,0,0,0,0,0,-2.5731,-2.5757,-2.5907,-2.5916,-2.5837,-2.5939,-2.5957,-2.5989,-2.6088,-2.6103,-2.6048,-2.6052,-2.6184,-2.6197,-2.6209,-2.6249,-2.6263,-2.6269,-2.6272,-2.639,-2.639,-2.639,0,0,0,0,0,0,-2.5726,-2.5744,-2.5902,-2.5839,-2.586,-2.5942,-2.5977,-2.5992,-2.6019,-2.6104,-2.6119,-2.6061,-2.6185,-2.6201,-2.6253,-2.6255,-2.6271,-2.6276,-2.639,-2.639,-2.639,-2.6327,0,0,0,0,0,0,-2.572,-2.5741,-2.5752,-2.5838,-2.5863,-2.5942,-2.5978,-2.5994,-2.6029,-2.6035,-2.612,-2.6134,-2.6186,-2.6244,-2.6258,-2.6263,-2.6281,-2.639,-2.639,-2.639,-2.6329,-2.6325,-2.6321,0,0,0,0,0,-2.5713,-2.5729,-2.5752,-2.577,-2.5878,-2.5942,-2.5956,-2.6015,-2.6028,-2.604,-2.6095,-2.6132,-2.6252,-2.6248,-2.6265,-2.6272,-2.6391,-2.639,-2.639,-2.6331,-2.6326,-2.6321,0,0,0,0,0,0,-2.5642,-2.5741,-2.5768,-2.5813,-2.5868,-2.5955,-2.5972,-2.6007,-2.606,-2.6064,-2.6135,-2.6154,-2.6199,-2.6241,-2.6234,-2.6304,-2.6325,-2.6328,-2.6275,-2.6271,-2.6266,-2.6255,-2.6285,0,0,0,0,0,-2.5631,-2.5673,-2.5759,-2.579,-2.5816,-2.5889,-2.5919,-2.5959,-2.602,-2.6044,-2.6102,-2.616,-2.6211,-2.6243,-2.6295,-2.6336,-2.6356,-2.6349,-2.6345,-2.6341,-2.6343,-2.6368,-2.6366,-2.6389,-2.6389,-2.6389,0,0,-2.561,-2.567,-2.5692,-2.5777,-2.5825,-2.5868,-2.5908,-2.5952,-2.5985,-2.6051,-2.6103,-2.6147,-2.6217,-2.6263,-2.6287,-2.63,-2.6341,-2.634,-2.6337,-2.6341,-2.6368,-2.6366,-2.6364,-2.6388,-2.6389,-2.6389,0,0,-2.5593,-2.5642,-2.5674,-2.5721,-2.5792,-2.584,-2.5848,-2.593,-2.5962,-2.6015,-2.6066,-2.6107,-2.6193,-2.6241,-2.6276,-2.6278,-2.6314,-2.6293,-2.6271,-2.6295,-2.6293,-2.6292,-2.6293,-2.6293,-2.6295,-2.6294,-2.6294,0,-2.5558,-2.5624,-2.5686,-2.5727,-2.5763,-2.5824,-2.5857,-2.59,-2.5985,-2.6009,-2.6022,-2.6132,-2.6183,-2.6242,-2.6242,-2.6269,-2.6281,-2.6284,-2.6288,-2.6288,-2.6288,-2.629,-2.629,-2.6291,-2.6292,-2.6292,-2.6292,0,-2.5577,-2.5622,-2.564,-2.5719,-2.5758,-2.5794,-2.5862,-2.5894,-2.5931,-2.5979,-2.6033,-2.6096,-2.6162,-2.6179,-2.6217,-2.6244,-2.625,-2.6275,-2.6297,-2.6282,-2.6285,-2.6286,-2.6287,-2.6288,-2.6289,-2.629,0,0,-2.5519,-2.5633,-2.5638,-2.5675,-2.5759,-2.5796,-2.5836,-2.5899,-2.5925,-2.5982,-2.6018,-2.609,-2.6114,-2.6154,-2.6197,-2.6219,-2.6217,-2.6242,-2.6244,-2.6235,-2.6252,-2.6233,-2.6232,-2.6242,-2.6242,-2.6242,-2.6246,0,-2.5515,-2.5588,-2.5646,-2.5698,-2.5741,-2.58,-2.5835,-2.5891,-2.5936,-2.598,-2.6031,-2.6081,-2.6109,-2.6133,-2.6157,-2.6212,-2.6221,-2.6213,-2.6277,-2.6278,-2.6257,-2.6234,-2.6214,-2.6215,-2.6248,-2.6248,-2.6248,0,-2.5519,-2.5573,-2.5629,-2.5709,-2.5729,-2.576,-2.5823,-2.5864,-2.5929,-2.5961,-2.6006,-2.6051,-2.6097,-2.6115,-2.618,-2.6173,-2.6203,-2.6234,-2.6235,-2.6244,-2.6262,-2.6242,-2.6216,-2.6216,-2.6251,-2.6251,-2.625,0,-2.5472,-2.5558,-2.5604,-2.5634,-2.5728,-2.5748,-2.5788,-2.5853,-2.5888,-2.5944,-2.5968,-2.6028,-2.6061,-2.6108,-2.6169,-2.6176,-2.6228,-2.6251,-2.6256,-2.6255,-2.6264,-2.6263,-2.6243,-2.6283,-2.6283,-2.6283,-2.6283,0,-2.5461,-2.5493,-2.5584,-2.5611,-2.565,-2.5716,-2.5752,-2.5798,-2.5855,-2.5894,-2.5949,-2.5984,-2.6062,-2.6107,-2.6155,-2.6202,-2.6216,-2.6244,-2.6256,-2.6239,-2.6236,-2.626,-2.6261,-2.6283,-2.6283,-2.6283,-2.6283,0,-2.5414,-2.5476,-2.5529,-2.5613,-2.5635,-2.566,-2.5733,-2.5763,-2.5812,-2.586,-2.5875,-2.5952,-2.6008,-2.6072,-2.615,-2.6182,-2.6226,-2.6244,-2.6203,-2.621,-2.6212,-2.6211,-2.6207,-2.621,-2.6247,-2.6247,-2.6246,0,-2.5403,-2.5429,-2.5516,-2.5545,-2.5584,-2.563,-2.5666,-2.5733,-2.5768,-2.5844,-2.5865,-2.5925,-2.5976,-2.6063,-2.6126,-2.6186,-2.6206,-2.6201,-2.6216,-2.6198,-2.6207,-2.6204,-2.6208,-2.6196,-2.6196,-2.6195,-2.6195,0,-2.5376,-2.5406,-2.5455,-2.5515,-2.5556,-2.5606,-2.5659,-2.568,-2.5758,-2.5795,-2.5852,-2.5892,-2.5971,-2.603,-2.6098,-2.6141,-2.6181,-2.6189,-2.6194,-2.6177,-2.6152,-2.6166,-2.6192,-2.6189,-2.619,-2.619,-2.619,-2.6191,-2.5348,-2.5374,-2.5439,-2.5492,-2.5539,-2.5587,-2.562,-2.5672,-2.5721,-2.5789,-2.5826,-2.5883,-2.5949,-2.6044,-2.6085,-2.6132,-2.6145,-2.6151,-2.6153,-2.6154,-2.6149,-2.6144,-2.6144,-2.6144,-2.6145,-2.6145,-2.6145,0,-2.5325,-2.537,-2.5418,-2.549,-2.5532,-2.5565,-2.5626,-2.5659,-2.5708,-2.5765,-2.5814,-2.5881,-2.5938,-2.6006,-2.6069,-2.6093,-2.6113,-2.6107,-2.6106,-2.6116,-2.6133,-2.6123,-2.609,-2.609,-2.609,-2.609,-2.609,-2.609,-2.5317,-2.5364,-2.5401,-2.5471,-2.5517,-2.5572,-2.5604,-2.5649,-2.5695,-2.5766,-2.5814,-2.5858,-2.592,-2.5988,-2.6043,-2.6062,-2.6082,-2.6071,-2.6095,-2.611,-2.6114,-2.6119,-2.611,-2.6075,-2.6075,-2.6074,-2.6074,-2.6074]},{"header":{"parameterUnit":"m.s-1","parameterCategory":1,"la1":30.2991,"la2":30.254,"lo1":-89.0895,"lo2":-89.0444,"dy":0.0017,"dx":0.0017,"nx":28,"ny":28,"refTime":"2025-03-14T21:00:00:Z","depth":0,"parameterNumber":3,"parameterNumberName":"V-component_of_WINDS"},"data":[0,0,0,0,0,0,0,0,0,0,0,0,0,0,0,0,0,0,0,0,0,0,0,0,0,0,0,0,0,0,0,0,0,0,0,0,0,0,0,0,0,0,0,0,0,0,0,0,0,0,0,0,0,0,0,0,0,0,9.0914,9.0916,0,9.1143,9.1146,9.1149,9.1146,9.1143,9.114,9.1137,9.1366,9.1375,9.1383,0,0,0,0,0,0,0,0,0,0,0,0,0,9.0469,9.0477,9.0914,9.0917,9.0919,9.1143,9.1146,9.1149,9.1146,9.1143,9.1139,9.1136,9.1363,9.1373,9.1384,0,0,0,0,0,0,0,0,0,0,0,0,0,9.0677,9.048,9.0913,9.0945,9.095,9.1142,9.1146,9.115,9.1147,9.1143,9.1138,9.1134,9.1359,9.1372,9.1386,9.1559,0,0,9.1427,9.1432,0,0,0,0,0,0,0,0,9.0665,9.0693,9.0938,9.0943,9.0949,9.1112,9.1073,9.1287,9.1148,9.1072,9.1137,9.1132,9.1285,9.1304,9.1357,9.157,9.158,9.1428,9.1436,9.1442,9.1445,0,0,0,0,0,0,0,9.0651,9.0683,9.1004,9.0941,9.0948,9.0947,9.0971,9.1114,9.1201,9.1078,9.1079,9.1106,9.1287,9.1344,9.1362,9.1583,9.1427,9.1439,9.1448,9.1453,9.1955,9.196,0,0,0,0,0,0,9.063,9.0671,9.0997,9.1011,9.0793,9.0959,9.0986,9.1064,9.1199,9.1216,9.111,9.1105,9.1323,9.1346,9.137,9.1586,9.1442,9.1454,9.1462,9.195,9.1956,9.1962,0,0,0,0,0,0,9.0621,9.0659,9.0988,9.0842,9.0883,9.0971,9.1059,9.1071,9.1128,9.1223,9.1238,9.1153,9.132,9.1351,9.1514,9.1594,9.146,9.1472,9.1944,9.1952,9.1959,9.2017,0,0,0,0,0,0,9.0608,9.0656,9.0723,9.0843,9.0891,9.1129,9.1064,9.1079,9.1152,9.1148,9.1267,9.1282,9.1319,9.1494,9.1527,9.161,9.1483,9.1937,9.1947,9.1957,9.2009,9.2026,9.2042,0,0,0,0,0,9.0592,9.0728,9.0727,9.0766,9.0978,9.1134,9.1161,9.1202,9.1158,9.1227,9.1289,9.1279,9.1579,9.1511,9.1548,9.1636,9.1932,9.1944,9.1956,9.2001,9.2023,9.2041,0,0,0,0,0,0,9.0612,9.0744,9.0744,9.0923,9.1018,9.1133,9.122,9.1223,9.133,9.1321,9.1366,9.1393,9.1557,9.1612,9.1533,9.1813,9.175,9.177,9.1772,9.1793,9.1809,9.1794,9.1494,0,0,0,0,0,9.0638,9.0756,9.0863,9.1011,9.1059,9.1132,9.1201,9.1225,9.1324,9.1363,9.1436,9.1531,9.1647,9.1722,9.1834,9.2016,9.2044,9.2095,9.2111,9.2124,9.2142,9.2246,9.2272,9.2001,9.2001,9.2001,0,0,9.0692,9.0778,9.0849,9.1018,9.1093,9.1214,9.1165,9.1293,9.1383,9.1381,9.1542,9.1599,9.1707,9.1882,9.1962,9.1933,9.2223,9.214,9.2149,9.216,9.2261,9.2287,9.2309,9.201,9.2008,9.2007,0,0,9.0852,9.0928,9.1062,9.114,9.1257,9.1305,9.1337,9.1454,9.1493,9.1654,9.1657,9.1763,9.1961,9.2041,9.2106,9.23,9.2297,9.2335,9.2421,9.2523,9.2544,9.2563,9.2636,9.2661,9.2351,9.2352,9.2352,0,9.0904,9.1087,9.113,9.1261,9.1336,9.1343,9.148,9.1552,9.1698,9.175,9.1715,9.1968,9.2041,9.2236,9.2284,9.2335,9.2375,9.2323,9.2538,9.2557,9.2576,9.2646,9.2673,9.2356,9.2355,9.2355,9.2355,0,9.1146,9.1273,9.1367,9.1513,9.1598,9.173,9.1793,9.1874,9.1891,9.1943,9.2109,9.2197,9.233,9.2377,9.2392,9.2575,9.2554,9.2528,9.2466,9.2605,9.2672,9.2699,9.2362,9.2361,9.2359,9.2358,0,0,9.1325,9.1496,9.153,9.1599,9.1729,9.1828,9.1961,9.2093,9.2163,9.2264,9.2378,9.2547,9.2526,9.2601,9.2626,9.2714,9.2867,9.2678,9.2681,9.2713,9.3078,9.31,9.313,9.2865,9.287,9.2874,9.3071,0,9.1503,9.1743,9.1787,9.1996,9.2116,9.2126,9.2242,9.2335,9.2387,9.2495,9.2551,9.2673,9.2633,9.2679,9.2767,9.283,9.2942,9.2816,9.2973,9.2978,9.2949,9.3165,9.3187,9.3369,9.3097,9.3101,9.3104,0,9.1741,9.1853,9.2076,9.2195,9.2246,9.2351,9.2478,9.258,9.2686,9.2718,9.2804,9.282,9.2959,9.2889,9.3083,9.2997,9.3063,9.3104,9.3112,9.3131,9.3052,9.3192,9.3427,9.3456,9.3145,9.3142,9.3139,0,9.1855,9.206,9.2222,9.2279,9.242,9.2494,9.2556,9.2658,9.2736,9.2845,9.2897,9.302,9.3088,9.3183,9.3232,9.3176,9.3424,9.3357,9.3456,9.3455,9.351,9.3506,9.3762,9.3546,9.3546,9.3545,9.3545,0,9.2051,9.2187,9.2275,9.2375,9.2529,9.2577,9.2728,9.2788,9.2879,9.299,9.3004,9.3107,9.3165,9.3277,9.3315,9.3472,9.3501,9.3532,9.3542,9.3534,9.353,9.358,9.357,9.3553,9.3551,9.355,9.3549,0,9.2205,9.2269,9.2446,9.2567,9.2601,9.2709,9.2812,9.2909,9.2962,9.3103,9.3138,9.3221,9.3354,9.3412,9.3574,9.36,9.3781,9.3779,9.3747,9.3751,9.3848,9.384,9.4147,9.4192,9.3943,9.3946,9.3947,0,9.2327,9.2433,9.2567,9.2644,9.271,9.2832,9.2914,9.2965,9.3049,9.318,9.3262,9.3396,9.3506,9.3718,9.3792,9.3917,9.3921,9.402,9.394,9.393,9.3927,9.3922,9.3935,9.4035,9.4038,9.404,9.4041,0,9.2538,9.2566,9.2683,9.2814,9.2911,9.3015,9.3116,9.3178,9.3246,9.3339,9.3478,9.3564,9.3732,9.3866,9.3997,9.4059,9.4064,9.4066,9.4097,9.4091,9.407,9.4087,9.3791,9.4059,9.4058,9.4056,9.4055,9.4055,9.2683,9.278,9.2891,9.3022,9.3105,9.3201,9.33,9.3366,9.3483,9.3627,9.365,9.3798,9.3903,9.408,9.4148,9.4265,9.424,9.4283,9.4294,9.4305,9.4314,9.4049,9.4288,9.4287,9.4287,9.4286,9.4286,0,9.2899,9.2972,9.3092,9.3237,9.3341,9.3337,9.345,9.3537,9.3668,9.3767,9.3877,9.4038,9.4169,9.4254,9.4386,9.4463,9.4468,9.4496,9.4493,9.4508,9.4325,9.4288,9.449,9.449,9.449,9.449,9.449,9.449,9.3024,9.3189,9.323,9.3437,9.3508,9.3656,9.3722,9.3811,9.3891,9.4071,9.4181,9.4236,9.4331,9.4471,9.4591,9.4612,9.4662,9.4692,9.4713,9.4541,9.452,9.45,9.4466,9.4702,9.4702,9.4886,9.4888,9.4889]}]]